NOAA 16 DEB, 41144

Orbit data source: Space-Track

NOAA 16 DEB, 41144 is space debris in SSO originally from a launch on Thu, 21 Sep 2000 UTC launched from the Air Force Western Test Range (AFWTR). Debris objects in space refer to the collection of defunct objects orbiting the Earth. Examples of debris include non-operational satellites, rocket bodies, and fragments generated from explosions, collisions, or faulty payload assembly.

Loading next visibility...
Identifier
41144, 2000-055CB
Orbit
SSO
Country
Flag of USUS
Related business
Manufacturer
Unknown
Mission
Spacecraft
Bus & Motor
Unknown
Mass
Unknown
Launch date (UTC)
2000-09-21 (26 years ago)
Launch vehicle
Unknown
Launch site
Air Force Western Test Range (AFWTR)
Object type
Payload
Rocket body
Debris
Shape & HBR
Unknown shape, 0.1 m
Radar Cross Section
Medium (>0.1 m² and <1 m²)

Expand to show TLE details & history
Last TLE update: 13 hours ago

TLE from 13 hours ago
0 NOAA 16 DEB
1 41144U 00055CB  26263.38220774  .00001905  00000-0  73851-3 0  9998
2 41144  98.6012 311.7096 0027388 207.8185 152.1534 14.30948563559281
Epoch: 2026-09-20T09:10Z
TLE epoch observation values (Epoch: 2026-09-20T09:10:22.748Z)
Latitude
-0.0001°
Longitude
174.83764°
Altitude
808.865 km
Speed
7.44 km/s
True Right ascension
20h 46m 50s
True Declination
0° 00' 00"
Sunlit
Object was in full shadow at epoch
Visualization orbit readout
Latitude
Unknown
Longitude
Unknown
Altitude
Unknown
Speed
Unknown
Apparent Right ascension
Unknown
Apparent Declination
Unknown
Sunlit
N/A
Visualization observer readout
Local Sidereal Time
15:01:50
Azimuth
Unknown
Elevation
Unknown
Doppler factor
Unknown
Orbital elements
Apogee altitude
805.321 km
Perigee altitude
766.08 km
Semi-major axis
7,163.838 km
Eccentricity
0.00274
Inclination
98.6012°
RAAN
311.7096°
Arg. of periapsis
207.8185°
True anomaly
152.29956°
Mean anomaly
152.1534°
Eccentric anomaly
152.22652°
Mean motion
3.57952 °/min
Orbital period
100.57 mins
BSTAR
0.00073851
Loading maneuver chart data...
Computing Atmospheric mass density...

Documentation

Showing up to 5 results
|